STARLINK-34781, 65073

Orbit data source: Space-Track

STARLINK-34781, 65073 is a payload satellite owned by SpaceX/Seattle (US) in SSO that was launched on Thu, 31 Jul 2025 UTC via an FALCON 9 launch vehicle from the Air Force Western Test Range (AFWTR). Payload-class satellites include a variety of spacecraft equipped with specific instruments for various scientific and technological missions. These include communications satellites like Starlink; space stations such as the ISS; scientific satellites like the Hubble; Earth observation satellites from companies like Planet Labs, Umbra, and HawkEye 360; GPS; miniature CubeSats for education and research; and military/defense satellites.

Loading next visibility...
Identifier
65073, 2025-165T
Orbit
SSO
Country
Flag of USUS
Related business
Manufacturer
SpaceX/Seattle
Mission
Operational Commercial Communications
Bus & Motor
STARLINK V2MO, Unknown motor
Mass
575 kg wet, ~530 kg dry
Launch date (UTC)
2025-07-31 (4 months ago)
Launch vehicle
FALCON 9
Launch site
Air Force Western Test Range (AFWTR)
Object type
Payload
Rocket body
Debris
Shape & HBR
Box + 2 Pan, 17.7 m
Radar Cross Section
36.964 m², Large (>1 m²)

Expand to show TLE details & history
Last TLE update: 12 hours ago

TLE from 12 hours ago
0 STARLINK-34781
1 65073U 25165T   25342.49535860  .00008438  00000-0  58817-3 0  9991
2 65073  97.6038  57.4181 0001353  86.6104 273.5277 15.05657740 21072
Epoch: 2025-12-08T11:53Z
TLE epoch observation values (Epoch: 2025-12-08T11:53:18.983Z)
Latitude
-0.00005°
Longitude
161.59544°
Altitude
552.495 km
Speed
7.586 km/s
True Right ascension
03h 49m 40s
True Declination
0° 00' 00"
Sunlit
Object was in full shadow at epoch
Visualization orbit readout
Latitude
Unknown
Longitude
Unknown
Altitude
Unknown
Speed
Unknown
Apparent Right ascension
Unknown
Apparent Declination
Unknown
Sunlit
N/A
Visualization observer readout
Local Sidereal Time
21:56:19
Azimuth
Unknown
Elevation
Unknown
Doppler factor
Unknown
Orbital elements
Apogee altitude
547.418 km
Perigee altitude
545.544 km
Semi-major axis
6,924.618 km
Eccentricity
0.00014
Inclination
97.6038°
RAAN
57.4181°
Arg. of periapsis
86.6104°
True anomaly
273.51222°
Mean anomaly
273.5277°
Eccentric anomaly
273.51996°
Mean motion
3.7666 °/min
Orbital period
95.58 mins
BSTAR
0.00058817
Loading maneuver chart data...
Computing Atmospheric mass density...
Loading historical data...
Loading historical data...
Loading historical data...
Loading historical data...
Loading historical data...
Loading historical data...
Loading historical data...

Documentation

Showing up to 5 results
|